This demonstration page uses our WeatherBlox Daily Observations layout. Learn more.

Left ArrowRight Arrow

40.92945, -100.16068

Hourly Observations for March 27, 2021

Temp ( °F °C ) Dew Point ( °F °C ) Humidity (%) Winds ( mph kmh ) Pressure ( in mb ) Visibility ( mi km ) Precip ( " mm )
12:15 am 00:15 Cloudy 42 5.7 40 4.6 93 93 N 5 7 29.92 1013 10 16 N/A
12:35 am 00:35 Cloudy 42 5.5 40 4.6 94 94 NW 6 9 29.92 1013 10 16 N/A
12:55 am 00:55 Cloudy 42 5.3 40 4.6 95 95 WNW 7 11 29.94 1014 10 16 N/A
1:15 am 01:15 Cloudy 41 5.2 40 4.5 95 95 WNW 5 7 29.94 1014 10 16 N/A
1:35 am 01:35 Cloudy 42 5.5 40 4.7 95 95 NW 5 7 29.93 1014 7 11 N/A
1:55 am 01:55 Cloudy 42 5.5 41 4.8 95 95 WNW 7 11 29.93 1014 7 11 N/A
2:15 am 02:15 Mostly Cloudy 41 5 40 4.3 95 95 NW 9 15 29.93 1013 7 11 N/A
2:35 am 02:35 Clear with Mist and Fog 40 4.4 39 3.8 96 96 NW 9 15 29.94 1014 5 8 N/A
2:55 am 02:55 Mostly Cloudy 41 5.1 40 4.6 97 97 WNW 6 9 29.95 1014 7 11 N/A
3:15 am 03:15 Cloudy 42 5.7 41 5 95 95 NW 3 6 29.94 1014 7 11 N/A
3:35 am 03:35 Cloudy 42 5.6 41 5 96 96 NW 5 7 29.94 1014 7 11 N/A
3:55 am 03:55 Cloudy 42 5.8 41 5.1 95 95 N N/A 29.94 1014 7 11 N/A
4:15 am 04:15 Cloudy with Mist and Fog 42 5.7 41 5 95 95 W 5 7 29.95 1014 5 8 N/A
4:35 am 04:35 Cloudy with Mist and Fog 43 6.1 42 5.6 97 97 WNW 7 11 29.95 1014 5 8 N/A
4:55 am 04:55 Cloudy 43 6.3 41 5.2 93 93 NW 9 15 29.95 1014 10 16 N/A
5:15 am 05:15 Cloudy 43 6.2 41 5 92 92 NW 8 13 29.94 1014 10 16 N/A
5:35 am 05:35 Cloudy 43 6 41 4.8 92 92 NW 9 15 29.94 1014 10 16 N/A
5:55 am 05:55 Cloudy 43 5.9 40 4.4 90 90 NW 9 15 29.95 1014 10 16 N/A
6:15 am 06:15 Partly Cloudy 41 4.8 39 3.7 93 93 NW 10 17 29.96 1015 10 16 N/A
6:35 am 06:35 Mostly Cloudy 41 5 39 4.1 94 94 NW 15 24 29.97 1015 10 16 N/A
6:55 am 06:55 Cloudy 41 5.1 40 4.2 94 94 NW 12 19 29.97 1015 10 16 N/A
7:15 am 07:15 Cloudy 41 4.9 39 4 94 94 NW 6 9 29.98 1015 10 16 N/A
7:35 am 07:35 Mostly Cloudy 39 3.7 37 3 95 95 NW 7 11 30.00 1016 10 16 N/A
7:55 am 07:55 Cloudy 40 4.6 39 4 96 96 WNW 6 9 30.01 1016 10 16 N/A
8:15 am 08:15 Cloudy 41 5.1 40 4.2 94 94 WNW 5 7 30.02 1016 10 16 N/A
8:35 am 08:35 Cloudy 42 5.6 40 4.3 91 91 NNW 7 11 30.02 1017 10 16 N/A
8:55 am 08:55 Cloudy 42 5.7 38 3.5 86 86 NNW 15 24 30.03 1017 10 16 N/A
9:15 am 09:15 Cloudy 43 6 38 3.6 85 85 NNW 10 17 30.03 1017 10 16 N/A
9:35 am 09:35 Partly Cloudy 44 6.4 38 3.4 81 81 NNW 8 13 30.03 1017 10 16 N/A
9:55 am 09:55 Sunny 44 6.9 38 3.5 79 79 NNW 13 20 30.05 1018 10 16 N/A
10:15 am 10:15 Mostly Cloudy 45 7 39 3.7 80 80 NNW 12 19 30.06 1018 10 16 N/A
10:35 am 10:35 Cloudy 44 6.9 38 3.6 80 80 NW 20 31 30.08 1019 10 16 N/A
10:55 am 10:55 Cloudy 44 6.7 38 3.4 80 80 NW 17 28 30.09 1019 10 16 N/A
11:15 am 11:15 Cloudy 46 7.8 38 3.5 74 74 NNW 17 28 30.08 1019 10 16 N/A
11:35 am 11:35 Cloudy 46 8 38 3.2 72 72 NNW 16 26 30.09 1019 10 16 N/A
11:55 am 11:55 Cloudy 47 8.5 37 2.8 68 68 NNW 14 22 30.09 1019 10 16 N/A
12:15 pm 12:15 Cloudy 49 9.4 37 2.7 63 63 NNW 21 33 30.08 1019 10 16 N/A
12:35 pm 12:35 Cloudy 49 9.6 37 3 64 64 NW 22 35 30.07 1018 10 16 N/A
12:55 pm 12:55 Mostly Cloudy 51 10.6 36 2.4 57 57 NW 24 39 30.07 1018 10 16 N/A
1:15 pm 13:15 Cloudy 50 10.1 35 1.8 57 57 NNW 16 26 30.07 1018 10 16 N/A
1:35 pm 13:35 Mostly Cloudy 51 10.5 36 2.1 56 56 NNW 20 31 30.08 1019 10 16 N/A
1:55 pm 13:55 Partly Cloudy 53 11.5 35 1.5 51 51 NNW 22 35 30.07 1018 10 16 N/A
2:15 pm 14:15 Mostly Cloudy 52 11.1 34 1.1 50 50 NNW 22 35 30.06 1018 10 16 N/A
2:35 pm 14:35 Mostly Cloudy 53 11.7 34 0.9 48 48 NW 18 30 30.06 1018 10 16 N/A
2:55 pm 14:55 Mostly Cloudy 53 11.5 32 0.2 46 46 NNW 22 35 30.06 1018 10 16 N/A
3:15 pm 15:15 Partly Cloudy 54 12 32 undefined 44 44 NNW 20 31 30.04 1017 10 16 N/A
3:35 pm 15:35 Partly Cloudy 54 12.2 30 -0.9 41 41 NNW 21 33 30.04 1017 10 16 N/A
3:55 pm 15:55 Partly Cloudy 54 12.3 27 -2.6 36 36 NW 25 41 30.04 1017 10 16 N/A
4:15 pm 16:15 Sunny 55 12.5 29 -1.9 37 37 NW 24 39 30.04 1017 10 16 N/A
4:35 pm 16:35 Partly Cloudy 55 12.7 28 -2 36 36 N 24 39 30.04 1017 10 16 N/A
4:55 pm 16:55 Partly Cloudy 55 12.5 28 -2.5 35 35 NNW 23 37 30.05 1018 10 16 N/A
5:15 pm 17:15 Partly Cloudy 54 12.3 26 -3.6 33 33 NNW 26 43 30.06 1018 10 16 N/A
5:35 pm 17:35 Sunny 55 12.5 25 -4 32 32 NW 17 28 30.06 1018 10 16 N/A
5:55 pm 17:55 Partly Cloudy 54 12 25 -3.9 33 33 NNW 21 33 30.07 1018 10 16 N/A
6:15 pm 18:15 Partly Cloudy 54 12.1 24 -4.4 32 32 N 20 31 30.07 1018 10 16 N/A
6:35 pm 18:35 Mostly Cloudy 54 12 24 -4.5 32 32 N 18 30 30.08 1019 10 16 N/A
6:55 pm 18:55 Partly Cloudy 52 10.9 24 -4.3 34 34 NNW 14 22 30.10 1019 10 16 N/A
7:15 pm 19:15 Partly Cloudy 49 9.6 27 -3 41 41 N 9 15 30.11 1020 10 16 N/A
7:35 pm 19:35 Cloudy 49 9.7 27 -2.9 41 41 N 15 24 30.13 1020 10 16 N/A
7:55 pm 19:55 Cloudy 49 9.6 27 -2.9 42 42 N 8 13 30.13 1020 10 16 N/A
8:15 pm 20:15 Mostly Cloudy 48 8.9 27 -2.8 44 44 N 14 22 30.15 1021 10 16 N/A
8:35 pm 20:35 Mostly Cloudy 46 7.5 28 -2.1 51 51 N 13 20 30.17 1022 10 16 N/A
8:55 pm 20:55 Partly Cloudy 44 6.4 29 -1.5 57 57 N 9 15 30.20 1023 10 16 N/A
9:15 pm 21:15 Clear 41 4.8 30 -1 66 66 NNW 9 15 30.23 1024 10 16 N/A
9:35 pm 21:35 Clear 38 3.6 30 -0.9 73 73 NW 10 17 30.25 1024 10 16 N/A
9:55 pm 21:55 Clear 38 3.1 31 -0.7 76 76 NW 8 13 30.27 1025 10 16 N/A
10:15 pm 22:15 Clear 37 2.5 30 -1.1 77 77 WNW 8 13 30.27 1025 10 16 N/A
10:35 pm 22:35 Clear 35 1.5 30 -1.1 83 83 NW 7 11 30.29 1026 10 16 N/A
10:55 pm 22:55 Clear 35 1.4 30 -0.9 85 85 WNW 7 11 30.29 1026 10 16 N/A
11:15 pm 23:15 Clear 33 0.6 30 -1.3 87 87 WNW 8 13 30.30 1026 10 16 N/A
11:35 pm 23:35 Clear 33 0.8 29 -1.5 85 85 NW 5 7 30.32 1027 10 16 N/A
11:55 pm 23:55 Clear 33 0.3 29 -1.5 88 88 NNW 5 7 30.32 1027 10 16 N/A

Powered by AerisWeather